Location: Delmar
(42.6220°N, 73.8326°W)
Time: 10:20:03
(UTC+00:00)

Cosmos 2297 Rocket - Pass Details

Date: 29 October 2020
Orbit: 838 x 845 km, 71.0° (Epoch: 23 November)

Event Time Altitude Azimuth Distance (km) Brightness Sun altitude
Rises 22:36:43 0° 337° (NNW) 3,413 5.5 -8.9°
Reaches altitude 10° 22:39:11 10° 339° (NNW) 2,474 4.8 -9.4°
Maximum altitude 22:44:52 73° 64° (ENE) 885 2.2 -10.4°
Drops below altitude 10° 22:50:30 10° 149° (SSE) 2,456 4.4 -11.4°
Sets 22:52:56 0° 152° (SSE) 3,386 5.1 -11.9°
